contact:dominique.lefevre@mio.osupytheas.fr, maurice.libes@osupytheas.fr, didier.mallarino@osupytheas.fr
Project:EMSO http://www.emso-fr.org/EMSO-France
Depth: 2436.0 m
Title:EMSO Ligure Ouest : Data MII capteur CSTAR
DateTime,Latitude,Longitude,Instrument_Serial,Reference_Counts,Signal_Counts,Corrected_Signal_raw_counts,Calculated_Beam_c_inverse_meters,Internal_thermistor_counts
DateTime,Latitude,Longitude,Instrument_Serial,Reference_Counts,Signal_Counts,Corrected_Signal_raw_counts,Calculated_Beam_c_inverse_meters,Internal_thermistor_counts
2023-01-20T00:01:38,42.805,6.029,CST-1368DR,4411,4899,11803,01.120,551
2023-01-20T00:04:39,42.805,6.029,CST-1368DR,4411,4898,11801,01.120,551
2023-01-20T00:07:41,42.805,6.029,CST-1368DR,4411,4897,11799,01.121,551
2023-01-20T00:10:43,42.805,6.029,CST-1368DR,4411,4897,11800,01.121,551
2023-01-20T00:13:44,42.805,6.029,CST-1368DR,4411,4897,11799,01.121,551
2023-01-20T00:16:46,42.805,6.029,CST-1368DR,4411,4896,11796,01.122,551
2023-01-20T00:19:47,42.805,6.029,CST-1368DR,4411,4897,11800,01.121,551
2023-01-20T00:22:49,42.805,6.029,CST-1368DR,4411,4896,11797,01.122,551
2023-01-20T00:25:50,42.805,6.029,CST-1368DR,4411,4895,11794,01.123,551
2023-01-20T00:28:52,42.805,6.029,CST-1368DR,4411,4898,11801,01.120,551
2023-01-20T00:31:54,42.805,6.029,CST-1368DR,4411,4897,11799,01.121,551
2023-01-20T00:34:55,42.805,6.029,CST-1368DR,4411,4897,11799,01.121,551
2023-01-20T00:37:57,42.805,6.029,CST-1368DR,4411,4896,11797,01.122,551
2023-01-20T00:40:58,42.805,6.029,CST-1368DR,4411,4898,11801,01.120,550
2023-01-20T00:44:00,42.805,6.029,CST-1368DR,4411,4897,11799,01.121,551
2023-01-20T00:47:02,42.805,6.029,CST-1368DR,4411,4897,11798,01.121,551
2023-01-20T00:50:03,42.805,6.029,CST-1368DR,4411,4897,11799,01.121,551
2023-01-20T00:53:05,42.805,6.029,CST-1368DR,4411,4896,11797,01.122,551
2023-01-20T00:56:06,42.805,6.029,CST-1368DR,4411,4897,11798,01.121,551
2023-01-20T00:59:08,42.805,6.029,CST-1368DR,4411,4898,11800,01.121,551
2023-01-20T01:02:10,42.805,6.029,CST-1368DR,4411,4896,11797,01.122,551
2023-01-20T01:05:11,42.805,6.029,CST-1368DR,4411,4897,11799,01.121,551
2023-01-20T01:08:13,42.805,6.029,CST-1368DR,4411,4897,11800,01.121,551
2023-01-20T01:11:14,42.805,6.029,CST-1368DR,4411,4897,11798,01.121,551
2023-01-20T01:14:16,42.805,6.029,CST-1368DR,4411,4896,11797,01.122,551
2023-01-20T01:17:17,42.805,6.029,CST-1368DR,4411,4896,11797,01.122,551
2023-01-20T01:20:19,42.805,6.029,CST-1368DR,4411,4896,11796,01.122,551
2023-01-20T01:23:21,42.805,6.029,CST-1368DR,4411,4895,11794,01.123,551
2023-01-20T01:26:22,42.805,6.029,CST-1368DR,4411,4897,11798,01.121,551
2023-01-20T01:29:24,42.805,6.029,CST-1368DR,4411,4897,11799,01.121,551
2023-01-20T01:32:25,42.805,6.029,CST-1368DR,4411,4897,11799,01.121,551
2023-01-20T01:35:27,42.805,6.029,CST-1368DR,4411,4898,11801,01.120,551
2023-01-20T01:38:29,42.805,6.029,CST-1368DR,4411,4899,11803,01.120,551
2023-01-20T01:41:30,42.805,6.029,CST-1368DR,4411,4898,11802,01.120,551
2023-01-20T01:44:32,42.805,6.029,CST-1368DR,4411,4896,11797,01.122,551
2023-01-20T01:47:33,42.805,6.029,CST-1368DR,4411,4899,11804,01.119,551
2023-01-20T01:50:35,42.805,6.029,CST-1368DR,4411,4899,11804,01.119,551
2023-01-20T01:53:36,42.805,6.029,CST-1368DR,4411,4900,11805,01.119,551
2023-01-20T01:56:38,42.805,6.029,CST-1368DR,4411,4897,11798,01.121,551
2023-01-20T01:59:40,42.805,6.029,CST-1368DR,4411,4900,11806,01.119,551
2023-01-20T02:02:41,42.805,6.029,CST-1368DR,4411,4899,11804,01.119,551
2023-01-20T02:05:43,42.805,6.029,CST-1368DR,4411,4899,11804,01.119,551
2023-01-20T02:08:44,42.805,6.029,CST-1368DR,4411,4899,11803,01.120,551
2023-01-20T02:11:46,42.805,6.029,CST-1368DR,4411,4899,11803,01.120,551
2023-01-20T02:14:48,42.805,6.029,CST-1368DR,4411,4899,11804,01.119,551
2023-01-20T02:17:49,42.805,6.029,CST-1368DR,4411,4899,11803,01.120,551
2023-01-20T02:20:51,42.805,6.029,CST-1368DR,4411,4898,11801,01.120,551
2023-01-20T02:23:52,42.805,6.029,CST-1368DR,4411,4899,11803,01.120,551
2023-01-20T02:26:54,42.805,6.029,CST-1368DR,4411,4900,11806,01.119,551
2023-01-20T02:29:56,42.805,6.029,CST-1368DR,4411,4899,11804,01.119,551
2023-01-20T02:32:57,42.805,6.029,CST-1368DR,4411,4899,11803,01.120,551
2023-01-20T02:35:59,42.805,6.029,CST-1368DR,4410,4899,11806,01.119,551
2023-01-20T02:39:00,42.805,6.029,CST-1368DR,4411,4899,11803,01.120,551
2023-01-20T02:42:02,42.805,6.029,CST-1368DR,4411,4899,11804,01.119,551
2023-01-20T02:45:03,42.805,6.029,CST-1368DR,4411,4898,11802,01.120,551
2023-01-20T02:48:05,42.805,6.029,CST-1368DR,4411,4898,11800,01.121,551
2023-01-20T02:51:07,42.805,6.029,CST-1368DR,4411,4898,11802,01.120,551
2023-01-20T02:54:08,42.805,6.029,CST-1368DR,4411,4899,11803,01.120,551
2023-01-20T02:57:10,42.805,6.029,CST-1368DR,4410,4897,11801,01.120,551
2023-01-20T03:00:11,42.805,6.029,CST-1368DR,4410,4897,11802,01.120,551
2023-01-20T03:03:13,42.805,6.029,CST-1368DR,4410,4891,11787,01.125,551
2023-01-20T03:06:15,42.805,6.029,CST-1368DR,4411,4896,11797,01.122,551
2023-01-20T03:09:16,42.805,6.029,CST-1368DR,4410,4897,11801,01.120,551
2023-01-20T03:12:18,42.805,6.029,CST-1368DR,4410,4898,11803,01.120,551
2023-01-20T03:15:19,42.805,6.029,CST-1368DR,4410,4897,11802,01.120,551
2023-01-20T03:18:21,42.805,6.029,CST-1368DR,4410,4898,11803,01.120,551
2023-01-20T03:21:22,42.805,6.029,CST-1368DR,4410,4898,11804,01.119,551
2023-01-20T03:24:24,42.805,6.029,CST-1368DR,4410,4895,11796,01.122,551
2023-01-20T03:27:26,42.805,6.029,CST-1368DR,4410,4896,11800,01.121,551
2023-01-20T03:30:27,42.805,6.029,CST-1368DR,4411,4897,11798,01.121,551
2023-01-20T03:33:29,42.805,6.029,CST-1368DR,4410,4897,11802,01.120,551
2023-01-20T03:36:30,42.805,6.029,CST-1368DR,4410,4897,11802,01.120,551
2023-01-20T03:39:32,42.805,6.029,CST-1368DR,4410,4896,11800,01.121,551
2023-01-20T03:42:34,42.805,6.029,CST-1368DR,4410,4899,11805,01.119,551
2023-01-20T03:45:35,42.805,6.029,CST-1368DR,4410,4898,11805,01.119,551
2023-01-20T03:48:37,42.805,6.029,CST-1368DR,4410,4899,11805,01.119,551
2023-01-20T03:51:38,42.805,6.029,CST-1368DR,4410,4898,11803,01.120,551
2023-01-20T03:54:40,42.805,6.029,CST-1368DR,4410,4898,11804,01.119,551
2023-01-20T03:57:42,42.805,6.029,CST-1368DR,4410,4899,11806,01.119,551
2023-01-20T04:00:43,42.805,6.029,CST-1368DR,4410,4898,11804,01.119,551
2023-01-20T04:03:45,42.805,6.029,CST-1368DR,4410,4897,11802,01.120,551
2023-01-20T04:06:46,42.805,6.029,CST-1368DR,4410,4898,11803,01.120,551
2023-01-20T04:09:48,42.805,6.029,CST-1368DR,4410,4899,11806,01.119,551
2023-01-20T04:12:49,42.805,6.029,CST-1368DR,4410,4898,11804,01.119,551
2023-01-20T04:15:51,42.805,6.029,CST-1368DR,4410,4898,11803,01.120,551
2023-01-20T04:18:53,42.805,6.029,CST-1368DR,4410,4898,11805,01.119,551
2023-01-20T04:21:54,42.805,6.029,CST-1368DR,4410,4898,11804,01.119,551
2023-01-20T04:24:56,42.805,6.029,CST-1368DR,4410,4898,11804,01.119,551
2023-01-20T04:27:57,42.805,6.029,CST-1368DR,4410,4897,11801,01.120,551
2023-01-20T04:30:59,42.805,6.029,CST-1368DR,4410,4897,11802,01.120,551
2023-01-20T04:34:01,42.805,6.029,CST-1368DR,4410,4897,11802,01.120,551
2023-01-20T04:37:02,42.805,6.029,CST-1368DR,4410,4898,11803,01.120,551
2023-01-20T04:40:04,42.805,6.029,CST-1368DR,4410,4898,11804,01.119,551
2023-01-20T04:43:05,42.805,6.029,CST-1368DR,4410,4898,11803,01.120,551
2023-01-20T04:46:07,42.805,6.029,CST-1368DR,4410,4899,11806,01.119,551
2023-01-20T04:49:08,42.805,6.029,CST-1368DR,4410,4898,11803,01.120,551
2023-01-20T04:52:10,42.805,6.029,CST-1368DR,4410,4898,11805,01.119,551
2023-01-20T04:55:12,42.805,6.029,CST-1368DR,4411,4898,11802,01.120,549
2023-01-20T04:58:13,42.805,6.029,CST-1368DR,4411,4898,11801,01.120,551
2023-01-20T05:01:15,42.805,6.029,CST-1368DR,4410,4896,11800,01.121,551
2023-01-20T05:04:16,42.805,6.029,CST-1368DR,4410,4897,11802,01.120,551
2023-01-20T05:07:18,42.805,6.029,CST-1368DR,4410,4897,11802,01.120,551
2023-01-20T05:10:20,42.805,6.029,CST-1368DR,4410,4898,11805,01.119,551
2023-01-20T05:13:21,42.805,6.029,CST-1368DR,4410,4897,11802,01.120,551
2023-01-20T05:16:23,42.805,6.029,CST-1368DR,4410,4892,11789,01.125,551
2023-01-20T05:19:24,42.805,6.029,CST-1368DR,4410,4898,11803,01.120,551
2023-01-20T05:22:26,42.805,6.029,CST-1368DR,4410,4896,11800,01.121,551
2023-01-20T05:25:27,42.805,6.029,CST-1368DR,4410,4898,11803,01.120,551
2023-01-20T05:28:29,42.805,6.029,CST-1368DR,4410,4896,11800,01.121,551
2023-01-20T05:31:31,42.805,6.029,CST-1368DR,4410,4896,11800,01.121,551
2023-01-20T05:34:32,42.805,6.029,CST-1368DR,4410,4897,11802,01.120,551
2023-01-20T05:37:34,42.805,6.029,CST-1368DR,4410,4896,11800,01.121,551
2023-01-20T05:40:35,42.805,6.029,CST-1368DR,4410,4897,11802,01.120,551
2023-01-20T05:43:37,42.805,6.029,CST-1368DR,4410,4897,11802,01.120,551
2023-01-20T05:46:39,42.805,6.029,CST-1368DR,4410,4896,11800,01.121,551
2023-01-20T05:49:40,42.805,6.029,CST-1368DR,4410,4899,11805,01.119,551
2023-01-20T05:52:42,42.805,6.029,CST-1368DR,4410,4898,11803,01.120,551
2023-01-20T05:55:43,42.805,6.029,CST-1368DR,4410,4898,11804,01.119,551
2023-01-20T05:58:45,42.805,6.029,CST-1368DR,4410,4896,11798,01.121,551
2023-01-20T06:01:46,42.805,6.029,CST-1368DR,4410,4898,11803,01.120,551
2023-01-20T06:04:48,42.805,6.029,CST-1368DR,4410,4899,11805,01.119,551
2023-01-20T06:07:50,42.805,6.029,CST-1368DR,4410,4899,11806,01.119,551
2023-01-20T06:10:51,42.805,6.029,CST-1368DR,4410,4898,11803,01.120,551
2023-01-20T06:13:53,42.805,6.029,CST-1368DR,4410,4898,11805,01.119,551
2023-01-20T06:16:54,42.805,6.029,CST-1368DR,4410,4897,11801,01.120,551
2023-01-20T06:19:56,42.805,6.029,CST-1368DR,4410,4898,11803,01.120,551
2023-01-20T06:22:58,42.805,6.029,CST-1368DR,4410,4898,11803,01.120,551
2023-01-20T06:25:59,42.805,6.029,CST-1368DR,4410,4897,11801,01.120,551
2023-01-20T06:29:01,42.805,6.029,CST-1368DR,4410,4896,11800,01.121,551
2023-01-20T06:32:02,42.805,6.029,CST-1368DR,4410,4898,11803,01.120,551
2023-01-20T06:35:04,42.805,6.029,CST-1368DR,4410,4898,11803,01.120,551
2023-01-20T06:38:06,42.805,6.029,CST-1368DR,4410,4898,11803,01.120,551
2023-01-20T06:41:07,42.805,6.029,CST-1368DR,4410,4898,11803,01.120,551
2023-01-20T06:44:09,42.805,6.029,CST-1368DR,4410,4896,11799,01.121,551
2023-01-20T06:47:10,42.805,6.029,CST-1368DR,4410,4895,11797,01.122,551
2023-01-20T06:50:12,42.805,6.029,CST-1368DR,4410,4896,11799,01.121,551
2023-01-20T06:53:13,42.805,6.029,CST-1368DR,4410,4896,11799,01.121,551
2023-01-20T06:56:15,42.805,6.029,CST-1368DR,4410,4898,11805,01.119,551
2023-01-20T06:59:17,42.805,6.029,CST-1368DR,4410,4898,11803,01.120,551
2023-01-20T07:02:18,42.805,6.029,CST-1368DR,4410,4899,11806,01.119,551
2023-01-20T07:05:20,42.805,6.029,CST-1368DR,4410,4897,11802,01.120,551
2023-01-20T07:08:21,42.805,6.029,CST-1368DR,4410,4896,11799,01.121,551
2023-01-20T07:11:23,42.805,6.029,CST-1368DR,4410,4898,11805,01.119,551
2023-01-20T07:14:25,42.805,6.029,CST-1368DR,4410,4897,11801,01.120,551
2023-01-20T07:17:26,42.805,6.029,CST-1368DR,4410,4898,11804,01.119,551
2023-01-20T07:20:28,42.805,6.029,CST-1368DR,4410,4896,11799,01.121,551
2023-01-20T07:23:29,42.805,6.029,CST-1368DR,4410,4896,11800,01.121,551
2023-01-20T07:26:31,42.805,6.029,CST-1368DR,4410,4897,11802,01.120,551
2023-01-20T07:29:32,42.805,6.029,CST-1368DR,4410,4897,11802,01.120,551
2023-01-20T07:32:34,42.805,6.029,CST-1368DR,4410,4897,11802,01.120,551
2023-01-20T07:35:36,42.805,6.029,CST-1368DR,4410,4896,11800,01.121,551
2023-01-20T07:38:37,42.805,6.029,CST-1368DR,4410,4897,11802,01.120,551
2023-01-20T07:41:39,42.805,6.029,CST-1368DR,4410,4898,11803,01.120,551
2023-01-20T07:44:40,42.805,6.029,CST-1368DR,4410,4896,11800,01.121,551
2023-01-20T07:47:42,42.805,6.029,CST-1368DR,4410,4897,11801,01.120,551
2023-01-20T07:50:44,42.805,6.029,CST-1368DR,4410,4898,11803,01.120,551
2023-01-20T07:53:45,42.805,6.029,CST-1368DR,4410,4896,11799,01.121,551
2023-01-20T07:56:47,42.805,6.029,CST-1368DR,4410,4896,11799,01.121,551
2023-01-20T07:59:48,42.805,6.029,CST-1368DR,4410,4895,11797,01.122,551
2023-01-20T08:02:50,42.805,6.029,CST-1368DR,4410,4897,11802,01.120,551
2023-01-20T08:05:51,42.805,6.029,CST-1368DR,4410,4896,11800,01.121,551
2023-01-20T08:08:53,42.805,6.029,CST-1368DR,4410,4896,11799,01.121,551
2023-01-20T08:11:55,42.805,6.029,CST-1368DR,4410,4896,11798,01.121,551
2023-01-20T08:14:56,42.805,6.029,CST-1368DR,4410,4898,11803,01.120,551
2023-01-20T08:17:58,42.805,6.029,CST-1368DR,4410,4897,11802,01.120,551
2023-01-20T08:20:59,42.805,6.029,CST-1368DR,4410,4897,11802,01.120,551
2023-01-20T08:24:01,42.805,6.029,CST-1368DR,4410,4896,11800,01.121,551
2023-01-20T08:27:03,42.805,6.029,CST-1368DR,4410,4896,11800,01.121,551
2023-01-20T08:30:04,42.805,6.029,CST-1368DR,4410,4896,11799,01.121,551
2023-01-20T08:33:06,42.805,6.029,CST-1368DR,4410,4898,11805,01.119,551
2023-01-20T08:36:07,42.805,6.029,CST-1368DR,4410,4897,11802,01.120,551
2023-01-20T08:39:09,42.805,6.029,CST-1368DR,4410,4896,11800,01.121,551
2023-01-20T08:42:11,42.805,6.029,CST-1368DR,4410,4896,11799,01.121,551
2023-01-20T08:45:12,42.805,6.029,CST-1368DR,4410,4896,11799,01.121,551
2023-01-20T08:48:14,42.805,6.029,CST-1368DR,4410,4896,11799,01.121,551
2023-01-20T08:51:15,42.805,6.029,CST-1368DR,4410,4895,11797,01.122,551
2023-01-20T08:54:17,42.805,6.029,CST-1368DR,4410,4894,11794,01.123,551
2023-01-20T08:57:18,42.805,6.029,CST-1368DR,4410,4895,11797,01.122,551
2023-01-20T09:00:20,42.805,6.029,CST-1368DR,4410,4895,11797,01.122,551
2023-01-20T09:03:22,42.805,6.029,CST-1368DR,4410,4894,11794,01.123,551
2023-01-20T09:06:23,42.805,6.029,CST-1368DR,4410,4894,11794,01.123,551
2023-01-20T09:09:25,42.805,6.029,CST-1368DR,4410,4895,11796,01.122,551
2023-01-20T09:12:26,42.805,6.029,CST-1368DR,4410,4894,11793,01.123,551
2023-01-20T09:15:28,42.805,6.029,CST-1368DR,4410,4894,11793,01.123,551
2023-01-20T09:18:30,42.805,6.029,CST-1368DR,4410,4892,11789,01.125,551
2023-01-20T09:21:31,42.805,6.029,CST-1368DR,4410,4892,11790,01.124,551
2023-01-20T09:24:33,42.805,6.029,CST-1368DR,4410,4892,11789,01.125,551
2023-01-20T09:27:34,42.805,6.029,CST-1368DR,4410,4892,11790,01.124,551
2023-01-20T09:30:36,42.805,6.029,CST-1368DR,4410,4893,11791,01.124,551
2023-01-20T09:33:37,42.805,6.029,CST-1368DR,4410,4893,11793,01.123,551
2023-01-20T09:36:39,42.805,6.029,CST-1368DR,4410,4879,11759,01.135,551
2023-01-20T09:39:41,42.805,6.029,CST-1368DR,4410,4895,11797,01.122,551
2023-01-20T09:42:42,42.805,6.029,CST-1368DR,4410,4896,11798,01.121,551
2023-01-20T09:45:44,42.805,6.029,CST-1368DR,4410,4897,11802,01.120,551
2023-01-20T09:48:45,42.805,6.029,CST-1368DR,4410,4901,11812,01.117,551
2023-01-20T09:51:47,42.805,6.029,CST-1368DR,4410,4901,11810,01.117,551
2023-01-20T09:54:49,42.805,6.029,CST-1368DR,4410,4898,11805,01.119,551
2023-01-20T09:57:50,42.805,6.029,CST-1368DR,4410,4901,11811,01.117,551
2023-01-20T10:00:52,42.805,6.029,CST-1368DR,4410,4911,11835,01.109,551
2023-01-20T10:03:53,42.805,6.029,CST-1368DR,4410,4911,11834,01.109,551
2023-01-20T10:06:55,42.805,6.029,CST-1368DR,4410,4914,11842,01.107,551
2023-01-20T10:09:57,42.805,6.029,CST-1368DR,4410,4915,11844,01.106,551
2023-01-20T10:12:58,42.805,6.029,CST-1368DR,4410,4918,11852,01.103,551
2023-01-20T10:16:00,42.805,6.029,CST-1368DR,4410,4919,11855,01.102,551
2023-01-20T10:19:01,42.805,6.029,CST-1368DR,4410,4921,11858,01.101,551
2023-01-20T10:22:03,42.805,6.029,CST-1368DR,4410,4918,11852,01.103,551
2023-01-20T10:25:04,42.805,6.029,CST-1368DR,4410,4920,11856,01.102,551
2023-01-20T10:28:06,42.805,6.029,CST-1368DR,4410,4917,11850,01.104,551
2023-01-20T10:31:08,42.805,6.029,CST-1368DR,4410,4918,11851,01.104,551
2023-01-20T10:34:09,42.805,6.029,CST-1368DR,4410,4918,11853,01.103,551
2023-01-20T10:37:11,42.805,6.029,CST-1368DR,4410,4918,11853,01.103,551
2023-01-20T10:40:12,42.805,6.029,CST-1368DR,4410,4919,11854,01.103,551
2023-01-20T10:43:14,42.805,6.029,CST-1368DR,4410,4921,11859,01.101,551
2023-01-20T10:46:16,42.805,6.029,CST-1368DR,4410,4919,11853,01.103,551
2023-01-20T10:49:17,42.805,6.029,CST-1368DR,4410,4920,11856,01.102,551
2023-01-20T10:52:19,42.805,6.029,CST-1368DR,4410,4915,11844,01.106,551
2023-01-20T10:55:20,42.805,6.029,CST-1368DR,4410,4916,11847,01.105,551
2023-01-20T10:58:22,42.805,6.029,CST-1368DR,4410,4915,11845,01.106,551
2023-01-20T11:01:23,42.805,6.029,CST-1368DR,4410,4915,11846,01.105,551
2023-01-20T11:04:25,42.805,6.029,CST-1368DR,4410,4915,11845,01.106,551
2023-01-20T11:07:27,42.805,6.029,CST-1368DR,4410,4916,11848,01.105,551
2023-01-20T11:10:28,42.805,6.029,CST-1368DR,4410,4916,11847,01.105,551
2023-01-20T11:13:30,42.805,6.029,CST-1368DR,4410,4917,11850,01.104,551
2023-01-20T11:16:31,42.805,6.029,CST-1368DR,4410,4916,11847,01.105,551
2023-01-20T11:19:33,42.805,6.029,CST-1368DR,4410,4916,11847,01.105,551
2023-01-20T11:22:35,42.805,6.029,CST-1368DR,4410,4920,11856,01.102,551
2023-01-20T11:25:36,42.805,6.029,CST-1368DR,4410,4915,11845,01.106,551
2023-01-20T11:28:38,42.805,6.029,CST-1368DR,4410,4918,11851,01.104,551
2023-01-20T11:31:39,42.805,6.029,CST-1368DR,4410,4916,11846,01.105,551
2023-01-20T11:34:41,42.805,6.029,CST-1368DR,4410,4919,11855,01.102,551
2023-01-20T11:37:43,42.805,6.029,CST-1368DR,4410,4916,11848,01.105,551
2023-01-20T11:40:44,42.805,6.029,CST-1368DR,4410,4919,11854,01.103,551
2023-01-20T11:43:46,42.805,6.029,CST-1368DR,4410,4918,11853,01.103,551
2023-01-20T11:46:47,42.805,6.029,CST-1368DR,4410,4919,11853,01.103,551
2023-01-20T11:49:49,42.805,6.029,CST-1368DR,4410,4920,11856,01.102,551
2023-01-20T11:52:50,42.805,6.029,CST-1368DR,4410,4920,11856,01.102,551
2023-01-20T11:55:52,42.805,6.029,CST-1368DR,4410,4919,11855,01.102,551
2023-01-20T11:58:54,42.805,6.029,CST-1368DR,4410,4918,11852,01.103,551
2023-01-20T12:01:55,42.805,6.029,CST-1368DR,4410,4917,11850,01.104,551
2023-01-20T12:04:57,42.805,6.029,CST-1368DR,4410,4915,11846,01.105,551
2023-01-20T12:07:58,42.805,6.029,CST-1368DR,4410,4918,11851,01.104,551
2023-01-20T12:11:00,42.805,6.029,CST-1368DR,4410,4919,11855,01.102,551
2023-01-20T12:14:02,42.805,6.029,CST-1368DR,4410,4919,11854,01.103,551
2023-01-20T12:17:03,42.805,6.029,CST-1368DR,4410,4920,11856,01.102,551
2023-01-20T12:20:05,42.805,6.029,CST-1368DR,4410,4920,11856,01.102,551
2023-01-20T12:23:06,42.805,6.029,CST-1368DR,4410,4917,11849,01.104,551
2023-01-20T12:26:08,42.805,6.029,CST-1368DR,4410,4916,11848,01.105,551
2023-01-20T12:29:09,42.805,6.029,CST-1368DR,4410,4917,11850,01.104,551
2023-01-20T12:32:11,42.805,6.029,CST-1368DR,4410,4919,11855,01.102,551
2023-01-20T12:35:13,42.805,6.029,CST-1368DR,4410,4919,11855,01.102,551
2023-01-20T12:38:14,42.805,6.029,CST-1368DR,4410,4919,11853,01.103,551
2023-01-20T12:41:16,42.805,6.029,CST-1368DR,4410,4920,11856,01.102,551
2023-01-20T12:44:17,42.805,6.029,CST-1368DR,4410,4919,11854,01.103,551
2023-01-20T12:47:19,42.805,6.029,CST-1368DR,4410,4918,11853,01.103,551
2023-01-20T12:50:21,42.805,6.029,CST-1368DR,4410,4918,11853,01.103,551
2023-01-20T12:53:22,42.805,6.029,CST-1368DR,4410,4916,11846,01.105,551
2023-01-20T12:56:24,42.805,6.029,CST-1368DR,4410,4918,11852,01.103,551
2023-01-20T12:59:25,42.805,6.029,CST-1368DR,4410,4916,11847,01.105,551
2023-01-20T13:02:27,42.805,6.029,CST-1368DR,4410,4919,11853,01.103,551
2023-01-20T13:05:29,42.805,6.029,CST-1368DR,4410,4914,11842,01.107,551
2023-01-20T13:08:30,42.805,6.029,CST-1368DR,4410,4914,11843,01.106,551
2023-01-20T13:11:32,42.805,6.029,CST-1368DR,4410,4918,11851,01.104,551
2023-01-20T13:14:33,42.805,6.029,CST-1368DR,4410,4920,11856,01.102,551
2023-01-20T13:17:35,42.805,6.029,CST-1368DR,4410,4918,11851,01.104,551
2023-01-20T13:20:36,42.805,6.029,CST-1368DR,4410,4920,11856,01.102,551
2023-01-20T13:23:38,42.805,6.029,CST-1368DR,4410,4921,11858,01.101,551
2023-01-20T13:26:40,42.805,6.029,CST-1368DR,4410,4919,11853,01.103,551
2023-01-20T13:29:41,42.805,6.029,CST-1368DR,4410,4917,11849,01.104,551
2023-01-20T13:32:43,42.805,6.029,CST-1368DR,4410,4919,11855,01.102,551
2023-01-20T13:35:44,42.805,6.029,CST-1368DR,4410,4921,11859,01.101,551
2023-01-20T13:38:46,42.805,6.029,CST-1368DR,4410,4918,11852,01.103,551
2023-01-20T13:41:48,42.805,6.029,CST-1368DR,4410,4920,11856,01.102,551
2023-01-20T13:44:49,42.805,6.029,CST-1368DR,4410,4923,11863,01.099,551
2023-01-20T13:47:51,42.805,6.029,CST-1368DR,4410,4919,11853,01.103,551
2023-01-20T13:50:52,42.805,6.029,CST-1368DR,4410,4919,11854,01.103,551
2023-01-20T13:53:54,42.805,6.029,CST-1368DR,4410,4919,11855,01.102,551
2023-01-20T13:56:56,42.805,6.029,CST-1368DR,4410,4919,11854,01.103,551
2023-01-20T13:59:57,42.805,6.029,CST-1368DR,4410,4917,11850,01.104,551
2023-01-20T14:02:59,42.805,6.029,CST-1368DR,4410,4918,11852,01.103,551
2023-01-20T14:06:00,42.805,6.029,CST-1368DR,4410,4919,11854,01.103,551
2023-01-20T14:09:02,42.805,6.029,CST-1368DR,4410,4919,11854,01.103,551
2023-01-20T14:12:03,42.805,6.029,CST-1368DR,4410,4920,11856,01.102,551
2023-01-20T14:15:05,42.805,6.029,CST-1368DR,4410,4918,11852,01.103,551
2023-01-20T14:18:07,42.805,6.029,CST-1368DR,4410,4919,11854,01.103,551
2023-01-20T14:21:08,42.805,6.029,CST-1368DR,4410,4919,11855,01.102,551
2023-01-20T14:24:10,42.805,6.029,CST-1368DR,4410,4919,11855,01.102,551
2023-01-20T14:27:11,42.805,6.029,CST-1368DR,4410,4919,11855,01.102,551
2023-01-20T14:30:13,42.805,6.029,CST-1368DR,4410,4919,11854,01.103,551
2023-01-20T14:33:15,42.805,6.029,CST-1368DR,4410,4919,11855,01.102,551
2023-01-20T14:36:16,42.805,6.029,CST-1368DR,4410,4921,11858,01.101,551
2023-01-20T14:39:18,42.805,6.029,CST-1368DR,4410,4918,11851,01.104,551
2023-01-20T14:42:19,42.805,6.029,CST-1368DR,4410,4920,11856,01.102,551
2023-01-20T14:45:21,42.805,6.029,CST-1368DR,4410,4919,11855,01.102,551
2023-01-20T14:48:22,42.805,6.029,CST-1368DR,4410,4918,11851,01.104,551
2023-01-20T14:51:24,42.805,6.029,CST-1368DR,4410,4919,11855,01.102,551
2023-01-20T14:54:26,42.805,6.029,CST-1368DR,4410,4919,11855,01.102,551
2023-01-20T14:57:27,42.805,6.029,CST-1368DR,4410,4919,11853,01.103,551
2023-01-20T15:00:29,42.805,6.029,CST-1368DR,4410,4919,11854,01.103,551
2023-01-20T15:03:30,42.805,6.029,CST-1368DR,4410,4917,11850,01.104,551
2023-01-20T15:06:32,42.805,6.029,CST-1368DR,4410,4919,11854,01.103,551
2023-01-20T15:09:34,42.805,6.029,CST-1368DR,4410,4918,11852,01.103,551
2023-01-20T15:12:35,42.805,6.029,CST-1368DR,4410,4919,11855,01.102,551
2023-01-20T15:15:37,42.805,6.029,CST-1368DR,4410,4918,11853,01.103,551
2023-01-20T15:18:38,42.805,6.029,CST-1368DR,4410,4918,11853,01.103,551
2023-01-20T15:21:40,42.805,6.029,CST-1368DR,4410,4919,11854,01.103,551
2023-01-20T15:24:42,42.805,6.029,CST-1368DR,4410,4918,11853,01.103,551
2023-01-20T15:27:43,42.805,6.029,CST-1368DR,4410,4916,11848,01.105,551
2023-01-20T15:30:45,42.805,6.029,CST-1368DR,4410,4920,11858,01.101,551
2023-01-20T15:33:46,42.805,6.029,CST-1368DR,4410,4920,11856,01.102,551
2023-01-20T15:36:48,42.805,6.029,CST-1368DR,4410,4919,11855,01.102,551
2023-01-20T15:39:49,42.805,6.029,CST-1368DR,4410,4918,11852,01.103,551
2023-01-20T15:42:51,42.805,6.029,CST-1368DR,4410,4918,11853,01.103,551
2023-01-20T15:45:53,42.805,6.029,CST-1368DR,4410,4919,11855,01.102,550
2023-01-20T15:48:54,42.805,6.029,CST-1368DR,4410,4919,11855,01.102,551
2023-01-20T15:51:56,42.805,6.029,CST-1368DR,4410,4919,11853,01.103,551
2023-01-20T15:54:57,42.805,6.029,CST-1368DR,4410,4919,11855,01.102,551
2023-01-20T15:57:59,42.805,6.029,CST-1368DR,4410,4919,11855,01.102,551
2023-01-20T16:01:01,42.805,6.029,CST-1368DR,4410,4919,11853,01.103,551
2023-01-20T16:04:02,42.805,6.029,CST-1368DR,4410,4920,11856,01.102,551
2023-01-20T16:07:04,42.805,6.029,CST-1368DR,4410,4921,11860,01.100,551
2023-01-20T16:10:05,42.805,6.029,CST-1368DR,4410,4920,11856,01.102,551
2023-01-20T16:13:07,42.805,6.029,CST-1368DR,4410,4920,11858,01.101,551
2023-01-20T16:16:08,42.805,6.029,CST-1368DR,4410,4921,11859,01.101,551
2023-01-20T16:19:10,42.805,6.029,CST-1368DR,4410,4918,11853,01.103,551
2023-01-20T16:22:12,42.805,6.029,CST-1368DR,4410,4920,11858,01.101,551
2023-01-20T16:25:13,42.805,6.029,CST-1368DR,4410,4920,11858,01.101,551
2023-01-20T16:28:15,42.805,6.029,CST-1368DR,4410,4920,11856,01.102,551
2023-01-20T16:31:16,42.805,6.029,CST-1368DR,4410,4920,11856,01.102,551
2023-01-20T16:34:18,42.805,6.029,CST-1368DR,4410,4921,11858,01.101,551
2023-01-20T16:37:20,42.805,6.029,CST-1368DR,4410,4920,11856,01.102,551